Tracking 31023 objects as of 20-Jul-2025
HD Live streaming from Space Station
objects crossing your sky now

TIANQI 35

Track TIANQI 35 now!
10-day predictions


NORAD ID: 62367
Int'l Code: 2024-245C
Perigee: 896.9 km
Apogee: 911.8 km
Inclination: 45.0 °
Period: 102.9 minutes
Semi major axis: 7275 km
RCS: Unknown
Launch date: December 19, 2024
Source: People's Republic of China (PRC)
Launch site: Yellow Sea Launch Area, China (YSLA)
Your satellite tracking list
Your tracking list is empty




NASA's NSSDC Master Catalog

Two Line Element Set (TLE):
1 62367U 24245C   25200.87404991  .00000032  00000-0  11035-3 0  9990
2 62367  44.9863   0.1211 0010254 231.6577 128.3334 13.99024512 29807
Source of the keplerian elements: AFSPC